#datetime,building,power
2022-08-20T00:00:00,75s,1.27
2022-08-20T00:01:00,75s,1.26
2022-08-20T00:02:00,75s,1.27
2022-08-20T00:03:00,75s,1.31
2022-08-20T00:04:00,75s,1.31
2022-08-20T00:05:00,75s,1.31
2022-08-20T00:06:00,75s,1.31
2022-08-20T00:07:00,75s,1.27
2022-08-20T00:08:00,75s,1.37
2022-08-20T00:09:00,75s,1.38
2022-08-20T00:10:00,75s,1.38
2022-08-20T00:11:00,75s,1.39
2022-08-20T00:12:00,75s,1.30
2022-08-20T00:13:00,75s,1.36
2022-08-20T00:14:00,75s,1.37
2022-08-20T00:15:00,75s,1.36
2022-08-20T00:16:00,75s,1.29
2022-08-20T00:17:00,75s,1.27
2022-08-20T00:18:00,75s,1.25
2022-08-20T00:19:00,75s,1.83
2022-08-20T00:20:00,75s,1.35
2022-08-20T00:21:00,75s,1.34
2022-08-20T00:22:00,75s,1.34
2022-08-20T00:23:00,75s,1.34
2022-08-20T00:24:00,75s,1.33
2022-08-20T00:25:00,75s,1.65
2022-08-20T00:26:00,75s,1.48
2022-08-20T00:27:00,75s,1.48
2022-08-20T00:28:00,75s,1.41
2022-08-20T00:29:00,75s,1.29
2022-08-20T00:30:00,75s,1.31
2022-08-20T00:31:00,75s,1.31
2022-08-20T00:32:00,75s,1.28
2022-08-20T00:33:00,75s,1.29
2022-08-20T00:34:00,75s,1.29
2022-08-20T00:35:00,75s,1.39
2022-08-20T00:36:00,75s,1.39
2022-08-20T00:37:00,75s,1.46
2022-08-20T00:38:00,75s,1.48
2022-08-20T00:39:00,75s,1.50
2022-08-20T00:40:00,75s,1.47
2022-08-20T00:41:00,75s,1.36
2022-08-20T00:42:00,75s,1.61
2022-08-20T00:43:00,75s,1.28
2022-08-20T00:44:00,75s,1.29
2022-08-20T00:45:00,75s,1.28
2022-08-20T00:46:00,75s,1.24
2022-08-20T00:47:00,75s,1.25
2022-08-20T00:48:00,75s,1.32
2022-08-20T00:49:00,75s,1.33
2022-08-20T00:50:00,75s,1.32
2022-08-20T00:51:00,75s,1.42
2022-08-20T00:52:00,75s,1.42
2022-08-20T00:53:00,75s,1.43
2022-08-20T00:54:00,75s,1.43
2022-08-20T00:55:00,75s,1.73
2022-08-20T00:56:00,75s,1.43
2022-08-20T00:57:00,75s,1.33
2022-08-20T00:58:00,75s,1.35
2022-08-20T00:59:00,75s,1.34
2022-08-20T01:00:00,75s,1.41
2022-08-20T01:01:00,75s,1.46
2022-08-20T01:02:00,75s,1.41
2022-08-20T01:03:00,75s,1.41
2022-08-20T01:04:00,75s,1.40
2022-08-20T01:05:00,75s,1.41
2022-08-20T01:06:00,75s,1.32
2022-08-20T01:07:00,75s,1.43
2022-08-20T01:08:00,75s,1.42
2022-08-20T01:09:00,75s,1.43
2022-08-20T01:10:00,75s,1.42
2022-08-20T01:11:00,75s,1.74
2022-08-20T01:12:00,75s,1.66
2022-08-20T01:13:00,75s,1.48
2022-08-20T01:14:00,75s,1.48
2022-08-20T01:15:00,75s,1.66
2022-08-20T01:16:00,75s,1.38
2022-08-20T01:17:00,75s,1.28
2022-08-20T01:18:00,75s,1.28
2022-08-20T01:19:00,75s,1.29
2022-08-20T01:20:00,75s,1.28
2022-08-20T01:21:00,75s,1.29
2022-08-20T01:22:00,75s,1.29
2022-08-20T01:23:00,75s,1.50
2022-08-20T01:24:00,75s,1.41
2022-08-20T01:25:00,75s,1.43
2022-08-20T01:26:00,75s,1.41
2022-08-20T01:27:00,75s,1.42
2022-08-20T01:28:00,75s,1.39
2022-08-20T01:29:00,75s,1.21
2022-08-20T01:30:00,75s,1.29
2022-08-20T01:31:00,75s,1.23
2022-08-20T01:32:00,75s,1.20
2022-08-20T01:33:00,75s,1.17
2022-08-20T01:34:00,75s,1.16
2022-08-20T01:35:00,75s,1.17
2022-08-20T01:36:00,75s,1.17
2022-08-20T01:37:00,75s,1.33
2022-08-20T01:38:00,75s,1.33
2022-08-20T01:39:00,75s,1.73
2022-08-20T01:40:00,75s,1.35
2022-08-20T01:41:00,75s,1.36
2022-08-20T01:42:00,75s,1.35
2022-08-20T01:43:00,75s,1.37
2022-08-20T01:44:00,75s,1.85
2022-08-20T01:45:00,75s,1.27
2022-08-20T01:46:00,75s,1.28
2022-08-20T01:47:00,75s,1.27
2022-08-20T01:48:00,75s,1.36
2022-08-20T01:49:00,75s,1.35
2022-08-20T01:50:00,75s,1.29
2022-08-20T01:51:00,75s,1.21
2022-08-20T01:52:00,75s,1.22
2022-08-20T01:53:00,75s,1.28
2022-08-20T01:54:00,75s,1.26
2022-08-20T01:55:00,75s,1.35
2022-08-20T01:56:00,75s,1.45
2022-08-20T01:57:00,75s,1.45
2022-08-20T01:58:00,75s,1.58
2022-08-20T01:59:00,75s,1.36
2022-08-20T02:00:00,75s,1.35
2022-08-20T02:01:00,75s,1.27
2022-08-20T02:02:00,75s,1.32
2022-08-20T02:03:00,75s,1.31
2022-08-20T02:04:00,75s,1.23
2022-08-20T02:05:00,75s,1.23
2022-08-20T02:06:00,75s,1.24
2022-08-20T02:07:00,75s,1.24
2022-08-20T02:08:00,75s,1.23
2022-08-20T02:09:00,75s,1.23
2022-08-20T02:10:00,75s,1.31
2022-08-20T02:11:00,75s,1.31
2022-08-20T02:12:00,75s,1.33
2022-08-20T02:13:00,75s,1.49
2022-08-20T02:14:00,75s,1.48
2022-08-20T02:15:00,75s,1.48
2022-08-20T02:16:00,75s,1.49
2022-08-20T02:17:00,75s,1.46
2022-08-20T02:18:00,75s,1.45
2022-08-20T02:19:00,75s,1.53
2022-08-20T02:20:00,75s,1.93
2022-08-20T02:21:00,75s,2.05
2022-08-20T02:22:00,75s,1.47
2022-08-20T02:23:00,75s,1.54
2022-08-20T02:24:00,75s,1.54
2022-08-20T02:25:00,75s,1.88
2022-08-20T02:26:00,75s,1.45
2022-08-20T02:27:00,75s,1.56
2022-08-20T02:28:00,75s,1.65
2022-08-20T02:29:00,75s,1.45
2022-08-20T02:30:00,75s,1.44
2022-08-20T02:31:00,75s,1.47
2022-08-20T02:32:00,75s,1.52
2022-08-20T02:33:00,75s,1.43
2022-08-20T02:34:00,75s,1.33
2022-08-20T02:35:00,75s,1.34
2022-08-20T02:36:00,75s,1.42
2022-08-20T02:37:00,75s,1.42
2022-08-20T02:38:00,75s,1.38
2022-08-20T02:39:00,75s,1.33
2022-08-20T02:40:00,75s,1.34
2022-08-20T02:41:00,75s,1.34
2022-08-20T02:42:00,75s,1.34
2022-08-20T02:43:00,75s,1.33
2022-08-20T02:44:00,75s,1.52
2022-08-20T02:45:00,75s,1.50
2022-08-20T02:46:00,75s,1.41
2022-08-20T02:47:00,75s,1.44
2022-08-20T02:48:00,75s,1.48
2022-08-20T02:49:00,75s,1.39
2022-08-20T02:50:00,75s,1.31
2022-08-20T02:51:00,75s,1.31
2022-08-20T02:52:00,75s,1.30
2022-08-20T02:53:00,75s,1.30
2022-08-20T02:54:00,75s,1.30
2022-08-20T02:55:00,75s,1.41
2022-08-20T02:56:00,75s,1.48
2022-08-20T02:57:00,75s,1.42
2022-08-20T02:58:00,75s,1.31
2022-08-20T02:59:00,75s,1.74
2022-08-20T03:00:00,75s,1.49
2022-08-20T03:01:00,75s,1.50
2022-08-20T03:02:00,75s,1.41
2022-08-20T03:03:00,75s,1.41
2022-08-20T03:04:00,75s,1.72
2022-08-20T03:05:00,75s,1.31
2022-08-20T03:06:00,75s,1.30
2022-08-20T03:07:00,75s,1.40
2022-08-20T03:08:00,75s,1.39
2022-08-20T03:09:00,75s,1.39
2022-08-20T03:10:00,75s,1.40
2022-08-20T03:11:00,75s,1.38
2022-08-20T03:12:00,75s,1.38
2022-08-20T03:13:00,75s,1.30
2022-08-20T03:14:00,75s,1.38
2022-08-20T03:15:00,75s,1.33
2022-08-20T03:16:00,75s,1.43
2022-08-20T03:17:00,75s,1.45
2022-08-20T03:18:00,75s,1.53
2022-08-20T03:19:00,75s,1.50
2022-08-20T03:20:00,75s,1.49
2022-08-20T03:21:00,75s,1.31
2022-08-20T03:22:00,75s,1.30
2022-08-20T03:23:00,75s,1.30
2022-08-20T03:24:00,75s,1.39
2022-08-20T03:25:00,75s,1.39
2022-08-20T03:26:00,75s,1.39
2022-08-20T03:27:00,75s,1.31
2022-08-20T03:28:00,75s,1.30
2022-08-20T03:29:00,75s,1.38
2022-08-20T03:30:00,75s,1.38
2022-08-20T03:31:00,75s,10.73
2022-08-20T03:32:00,75s,10.59
2022-08-20T03:33:00,75s,10.49
2022-08-20T03:34:00,75s,10.62
2022-08-20T03:35:00,75s,10.31
2022-08-20T03:36:00,75s,1.35
2022-08-20T03:37:00,75s,1.26
2022-08-20T03:38:00,75s,1.26
2022-08-20T03:39:00,75s,1.20
2022-08-20T03:40:00,75s,1.49
2022-08-20T03:41:00,75s,1.66
2022-08-20T03:42:00,75s,1.68
2022-08-20T03:43:00,75s,1.66
2022-08-20T03:44:00,75s,1.55
2022-08-20T03:45:00,75s,1.64
2022-08-20T03:46:00,75s,1.91
2022-08-20T03:47:00,75s,1.55
2022-08-20T03:48:00,75s,1.66
2022-08-20T03:49:00,75s,1.87
2022-08-20T03:50:00,75s,2.02
2022-08-20T03:51:00,75s,2.02
2022-08-20T03:52:00,75s,1.63
2022-08-20T03:53:00,75s,1.55
2022-08-20T03:54:00,75s,1.53
2022-08-20T03:55:00,75s,1.58
2022-08-20T03:56:00,75s,1.59
2022-08-20T03:57:00,75s,1.66
2022-08-20T03:58:00,75s,1.58
2022-08-20T03:59:00,75s,1.53
2022-08-20T04:00:00,75s,1.57
2022-08-20T04:01:00,75s,1.64
2022-08-20T04:02:00,75s,1.66
2022-08-20T04:03:00,75s,1.64
2022-08-20T04:04:00,75s,1.74
2022-08-20T04:05:00,75s,2.08
2022-08-20T04:06:00,75s,1.75
2022-08-20T04:07:00,75s,1.73
2022-08-20T04:08:00,75s,1.73
2022-08-20T04:09:00,75s,1.74
2022-08-20T04:10:00,75s,2.12
2022-08-20T04:11:00,75s,1.79
2022-08-20T04:12:00,75s,1.70
2022-08-20T04:13:00,75s,1.63
2022-08-20T04:14:00,75s,1.63
2022-08-20T04:15:00,75s,1.63
2022-08-20T04:16:00,75s,1.63
2022-08-20T04:17:00,75s,1.63
2022-08-20T04:18:00,75s,1.64
2022-08-20T04:19:00,75s,1.67
2022-08-20T04:20:00,75s,1.71
2022-08-20T04:21:00,75s,1.68
2022-08-20T04:22:00,75s,1.86
2022-08-20T04:23:00,75s,1.53
2022-08-20T04:24:00,75s,1.52
2022-08-20T04:25:00,75s,1.39
2022-08-20T04:26:00,75s,1.28
2022-08-20T04:27:00,75s,1.27
2022-08-20T04:28:00,75s,1.27
2022-08-20T04:29:00,75s,1.27
2022-08-20T04:30:00,75s,1.27
2022-08-20T04:31:00,75s,1.29
2022-08-20T04:32:00,75s,1.35
2022-08-20T04:33:00,75s,1.71
2022-08-20T04:34:00,75s,1.43
2022-08-20T04:35:00,75s,1.43
2022-08-20T04:36:00,75s,1.46
2022-08-20T04:37:00,75s,1.37
2022-08-20T04:38:00,75s,1.38
2022-08-20T04:39:00,75s,1.33
2022-08-20T04:40:00,75s,1.33
2022-08-20T04:41:00,75s,1.33
2022-08-20T04:42:00,75s,1.23
2022-08-20T04:43:00,75s,1.24
2022-08-20T04:44:00,75s,1.25
2022-08-20T04:45:00,75s,1.79
2022-08-20T04:46:00,75s,1.50
2022-08-20T04:47:00,75s,1.50
2022-08-20T04:48:00,75s,1.31
2022-08-20T04:49:00,75s,1.34
2022-08-20T04:50:00,75s,1.32
2022-08-20T04:51:00,75s,1.32
2022-08-20T04:52:00,75s,1.42
2022-08-20T04:53:00,75s,1.42
2022-08-20T04:54:00,75s,1.41
2022-08-20T04:55:00,75s,1.42
2022-08-20T04:56:00,75s,1.49
2022-08-20T04:57:00,75s,1.59
2022-08-20T04:58:00,75s,1.49
2022-08-20T04:59:00,75s,1.39
2022-08-20T05:00:00,75s,1.31
2022-08-20T05:01:00,75s,1.31
2022-08-20T05:02:00,75s,1.28
2022-08-20T05:03:00,75s,1.29
2022-08-20T05:04:00,75s,1.28
2022-08-20T05:05:00,75s,1.28
2022-08-20T05:06:00,75s,1.20
2022-08-20T05:07:00,75s,1.29
2022-08-20T05:08:00,75s,1.33
2022-08-20T05:09:00,75s,1.52
2022-08-20T05:10:00,75s,1.45
2022-08-20T05:11:00,75s,1.46
2022-08-20T05:12:00,75s,1.36
2022-08-20T05:13:00,75s,1.36
2022-08-20T05:14:00,75s,1.27
2022-08-20T05:15:00,75s,1.28
2022-08-20T05:16:00,75s,1.26
2022-08-20T05:17:00,75s,1.27
2022-08-20T05:18:00,75s,1.33
2022-08-20T05:19:00,75s,1.42
2022-08-20T05:20:00,75s,1.34
2022-08-20T05:21:00,75s,1.35
2022-08-20T05:22:00,75s,1.69
2022-08-20T05:23:00,75s,1.24
2022-08-20T05:24:00,75s,1.22
2022-08-20T05:25:00,75s,1.32
2022-08-20T05:26:00,75s,1.31
2022-08-20T05:27:00,75s,1.27
2022-08-20T05:28:00,75s,1.26
2022-08-20T05:29:00,75s,1.27
2022-08-20T05:30:00,75s,1.22
2022-08-20T05:31:00,75s,1.45
2022-08-20T05:32:00,75s,1.37
2022-08-20T05:33:00,75s,1.29
2022-08-20T05:34:00,75s,1.29
2022-08-20T05:35:00,75s,1.21
2022-08-20T05:36:00,75s,1.23
2022-08-20T05:37:00,75s,1.30
2022-08-20T05:38:00,75s,1.23
2022-08-20T05:39:00,75s,1.22
2022-08-20T05:40:00,75s,1.22
2022-08-20T05:41:00,75s,1.55
2022-08-20T05:42:00,75s,1.32
2022-08-20T05:43:00,75s,1.32
2022-08-20T05:44:00,75s,1.32
2022-08-20T05:45:00,75s,1.31
2022-08-20T05:46:00,75s,1.39
2022-08-20T05:47:00,75s,1.30
2022-08-20T05:48:00,75s,1.38
2022-08-20T05:49:00,75s,1.32
2022-08-20T05:50:00,75s,1.38
2022-08-20T05:51:00,75s,1.21
2022-08-20T05:52:00,75s,1.33
2022-08-20T05:53:00,75s,1.21
2022-08-20T05:54:00,75s,1.22
2022-08-20T05:55:00,75s,1.21
2022-08-20T05:56:00,75s,1.29
2022-08-20T05:57:00,75s,1.42
2022-08-20T05:58:00,75s,1.39
2022-08-20T05:59:00,75s,1.36
2022-08-20T06:00:00,75s,1.41
2022-08-20T06:01:00,75s,2.85
2022-08-20T06:02:00,75s,3.25
2022-08-20T06:03:00,75s,3.92
2022-08-20T06:04:00,75s,3.35
2022-08-20T06:05:00,75s,3.37
2022-08-20T06:06:00,75s,13.57
2022-08-20T06:07:00,75s,13.39
2022-08-20T06:08:00,75s,13.37
2022-08-20T06:09:00,75s,13.42
2022-08-20T06:10:00,75s,13.37
2022-08-20T06:11:00,75s,13.37
2022-08-20T06:12:00,75s,13.44
2022-08-20T06:13:00,75s,13.52
2022-08-20T06:14:00,75s,13.87
2022-08-20T06:15:00,75s,13.53
2022-08-20T06:16:00,75s,19.11
2022-08-20T06:17:00,75s,13.54
2022-08-20T06:18:00,75s,13.46
2022-08-20T06:19:00,75s,13.57
2022-08-20T06:20:00,75s,13.55
2022-08-20T06:21:00,75s,14.13
2022-08-20T06:22:00,75s,13.88
2022-08-20T06:23:00,75s,13.91
2022-08-20T06:24:00,75s,14.03
2022-08-20T06:25:00,75s,14.03
2022-08-20T06:26:00,75s,3.77
2022-08-20T06:27:00,75s,3.70
2022-08-20T06:28:00,75s,3.70
2022-08-20T06:29:00,75s,3.79
2022-08-20T06:30:00,75s,3.78
2022-08-20T06:31:00,75s,3.81
2022-08-20T06:32:00,75s,4.03
2022-08-20T06:33:00,75s,4.21
2022-08-20T06:34:00,75s,3.89
2022-08-20T06:35:00,75s,3.50
2022-08-20T06:36:00,75s,3.12
2022-08-20T06:37:00,75s,3.04
2022-08-20T06:38:00,75s,2.99
2022-08-20T06:39:00,75s,3.00
2022-08-20T06:40:00,75s,3.05
2022-08-20T06:41:00,75s,3.06
2022-08-20T06:42:00,75s,3.08
2022-08-20T06:43:00,75s,3.21
2022-08-20T06:44:00,75s,3.22
2022-08-20T06:45:00,75s,13.71
2022-08-20T06:46:00,75s,14.17
2022-08-20T06:47:00,75s,13.67
2022-08-20T06:48:00,75s,13.66
2022-08-20T06:49:00,75s,13.59
2022-08-20T06:50:00,75s,13.59
2022-08-20T06:51:00,75s,13.49
2022-08-20T06:52:00,75s,13.62
2022-08-20T06:53:00,75s,13.75
2022-08-20T06:54:00,75s,13.79
2022-08-20T06:55:00,75s,19.75
2022-08-20T06:56:00,75s,19.73
2022-08-20T06:57:00,75s,19.91
2022-08-20T06:58:00,75s,20.19
2022-08-20T06:59:00,75s,21.76
2022-08-20T07:00:00,75s,22.61
2022-08-20T07:01:00,75s,23.75
2022-08-20T07:02:00,75s,24.18
2022-08-20T07:03:00,75s,23.82
2022-08-20T07:04:00,75s,22.73
2022-08-20T07:05:00,75s,21.41
2022-08-20T07:06:00,75s,20.84
2022-08-20T07:07:00,75s,19.78
2022-08-20T07:08:00,75s,19.89
2022-08-20T07:09:00,75s,19.78
2022-08-20T07:10:00,75s,14.51
2022-08-20T07:11:00,75s,13.97
2022-08-20T07:12:00,75s,13.98
2022-08-20T07:13:00,75s,13.99
2022-08-20T07:14:00,75s,14.33
2022-08-20T07:15:00,75s,14.20
2022-08-20T07:16:00,75s,14.00
2022-08-20T07:17:00,75s,14.08
2022-08-20T07:18:00,75s,14.16
2022-08-20T07:19:00,75s,14.22
2022-08-20T07:20:00,75s,14.31
2022-08-20T07:21:00,75s,14.08
2022-08-20T07:22:00,75s,14.02
2022-08-20T07:23:00,75s,13.96
2022-08-20T07:24:00,75s,13.88
2022-08-20T07:25:00,75s,13.86
2022-08-20T07:26:00,75s,13.85
2022-08-20T07:27:00,75s,13.72
2022-08-20T07:28:00,75s,13.55
2022-08-20T07:29:00,75s,13.55
2022-08-20T07:30:00,75s,13.49
2022-08-20T07:31:00,75s,13.58
2022-08-20T07:32:00,75s,13.58
2022-08-20T07:33:00,75s,13.50
2022-08-20T07:34:00,75s,13.70
2022-08-20T07:35:00,75s,13.81
2022-08-20T07:36:00,75s,13.74
2022-08-20T07:37:00,75s,13.85
2022-08-20T07:38:00,75s,13.82
2022-08-20T07:39:00,75s,13.80
2022-08-20T07:40:00,75s,13.79
2022-08-20T07:41:00,75s,13.83
2022-08-20T07:42:00,75s,13.76
2022-08-20T07:43:00,75s,3.20
2022-08-20T07:44:00,75s,3.27
2022-08-20T07:45:00,75s,3.27
2022-08-20T07:46:00,75s,3.25
2022-08-20T07:47:00,75s,3.24
2022-08-20T07:48:00,75s,3.33
2022-08-20T07:49:00,75s,3.44
2022-08-20T07:50:00,75s,3.37
2022-08-20T07:51:00,75s,3.52
2022-08-20T07:52:00,75s,3.52
2022-08-20T07:53:00,75s,14.14
2022-08-20T07:54:00,75s,14.44
2022-08-20T07:55:00,75s,13.89
2022-08-20T07:56:00,75s,13.91
2022-08-20T07:57:00,75s,13.86
2022-08-20T07:58:00,75s,13.86
2022-08-20T07:59:00,75s,13.90
2022-08-20T08:00:00,75s,13.53
2022-08-20T08:01:00,75s,13.53
2022-08-20T08:02:00,75s,13.46
2022-08-20T08:03:00,75s,25.07
2022-08-20T08:04:00,75s,24.10
2022-08-20T08:05:00,75s,19.46
2022-08-20T08:06:00,75s,19.55
2022-08-20T08:07:00,75s,19.37
2022-08-20T08:08:00,75s,19.40
2022-08-20T08:09:00,75s,19.46
2022-08-20T08:10:00,75s,19.37
2022-08-20T08:11:00,75s,19.33
2022-08-20T08:12:00,75s,19.61
2022-08-20T08:13:00,75s,19.70
2022-08-20T08:14:00,75s,24.38
2022-08-20T08:15:00,75s,22.96
2022-08-20T08:16:00,75s,23.24
2022-08-20T08:17:00,75s,23.53
2022-08-20T08:18:00,75s,22.82
2022-08-20T08:19:00,75s,21.30
2022-08-20T08:20:00,75s,19.83
2022-08-20T08:21:00,75s,13.32
2022-08-20T08:22:00,75s,13.38
2022-08-20T08:23:00,75s,13.74
2022-08-20T08:24:00,75s,13.38
2022-08-20T08:25:00,75s,13.44
2022-08-20T08:26:00,75s,14.50
2022-08-20T08:27:00,75s,14.09
2022-08-20T08:28:00,75s,14.07
2022-08-20T08:29:00,75s,14.06
2022-08-20T08:30:00,75s,14.10
2022-08-20T08:31:00,75s,14.19
2022-08-20T08:32:00,75s,14.06
2022-08-20T08:33:00,75s,14.11
2022-08-20T08:34:00,75s,14.27
2022-08-20T08:35:00,75s,3.39
2022-08-20T08:36:00,75s,3.33
2022-08-20T08:37:00,75s,3.41
2022-08-20T08:38:00,75s,3.85
2022-08-20T08:39:00,75s,12.83
2022-08-20T08:40:00,75s,12.66
2022-08-20T08:41:00,75s,13.03
2022-08-20T08:42:00,75s,12.62
2022-08-20T08:43:00,75s,12.79
2022-08-20T08:44:00,75s,3.44
2022-08-20T08:45:00,75s,14.44
2022-08-20T08:46:00,75s,14.47
2022-08-20T08:47:00,75s,14.40
2022-08-20T08:48:00,75s,14.47
2022-08-20T08:49:00,75s,14.80
2022-08-20T08:50:00,75s,14.87
2022-08-20T08:51:00,75s,14.40
2022-08-20T08:52:00,75s,14.43
2022-08-20T08:53:00,75s,14.43
2022-08-20T08:54:00,75s,14.49
2022-08-20T08:55:00,75s,26.26
2022-08-20T08:56:00,75s,27.00
2022-08-20T08:57:00,75s,26.34
2022-08-20T08:58:00,75s,26.06
2022-08-20T08:59:00,75s,25.66
2022-08-20T09:00:00,75s,25.15
2022-08-20T09:01:00,75s,20.12
2022-08-20T09:02:00,75s,20.03
2022-08-20T09:03:00,75s,20.02
2022-08-20T09:04:00,75s,20.03
2022-08-20T09:05:00,75s,20.10
2022-08-20T09:06:00,75s,20.15
2022-08-20T09:07:00,75s,20.02
2022-08-20T09:08:00,75s,19.82
2022-08-20T09:09:00,75s,19.79
2022-08-20T09:10:00,75s,14.02
2022-08-20T09:11:00,75s,13.92
2022-08-20T09:12:00,75s,14.02
2022-08-20T09:13:00,75s,14.13
2022-08-20T09:14:00,75s,14.15
2022-08-20T09:15:00,75s,14.12
2022-08-20T09:16:00,75s,14.13
2022-08-20T09:17:00,75s,14.12
2022-08-20T09:18:00,75s,14.19
2022-08-20T09:19:00,75s,14.14
2022-08-20T09:20:00,75s,14.15
2022-08-20T09:21:00,75s,14.04
2022-08-20T09:22:00,75s,14.03
2022-08-20T09:23:00,75s,14.05
2022-08-20T09:24:00,75s,14.00
2022-08-20T09:25:00,75s,14.37
2022-08-20T09:26:00,75s,14.26
2022-08-20T09:27:00,75s,14.31
2022-08-20T09:28:00,75s,14.33
2022-08-20T09:29:00,75s,14.43
2022-08-20T09:30:00,75s,14.38
2022-08-20T09:31:00,75s,14.44
2022-08-20T09:32:00,75s,14.33
2022-08-20T09:33:00,75s,14.20
2022-08-20T09:34:00,75s,14.29
2022-08-20T09:35:00,75s,14.28
2022-08-20T09:36:00,75s,14.72
2022-08-20T09:37:00,75s,14.25
2022-08-20T09:38:00,75s,14.34
2022-08-20T09:39:00,75s,14.42
2022-08-20T09:40:00,75s,14.40
2022-08-20T09:41:00,75s,14.47
2022-08-20T09:42:00,75s,14.69
2022-08-20T09:43:00,75s,20.32
2022-08-20T09:44:00,75s,20.50
2022-08-20T09:45:00,75s,20.32
2022-08-20T09:46:00,75s,20.28
2022-08-20T09:47:00,75s,20.53
2022-08-20T09:48:00,75s,20.36
2022-08-20T09:49:00,75s,20.26
2022-08-20T09:50:00,75s,20.36
2022-08-20T09:51:00,75s,20.37
2022-08-20T09:52:00,75s,20.42
2022-08-20T09:53:00,75s,20.50
2022-08-20T09:54:00,75s,20.60
2022-08-20T09:55:00,75s,20.55
2022-08-20T09:56:00,75s,20.52
2022-08-20T09:57:00,75s,20.51
2022-08-20T09:58:00,75s,21.02
2022-08-20T09:59:00,75s,20.77
2022-08-20T10:00:00,75s,20.71
2022-08-20T10:01:00,75s,20.98
2022-08-20T10:02:00,75s,20.96
2022-08-20T10:03:00,75s,21.04
2022-08-20T10:04:00,75s,21.05
2022-08-20T10:05:00,75s,21.07
2022-08-20T10:06:00,75s,21.06
2022-08-20T10:07:00,75s,20.96
2022-08-20T10:08:00,75s,20.91
2022-08-20T10:09:00,75s,21.37
2022-08-20T10:10:00,75s,22.58
2022-08-20T10:11:00,75s,24.28
2022-08-20T10:12:00,75s,25.90
2022-08-20T10:13:00,75s,27.18
2022-08-20T10:14:00,75s,27.40
2022-08-20T10:15:00,75s,27.25
2022-08-20T10:16:00,75s,27.15
2022-08-20T10:17:00,75s,27.27
2022-08-20T10:18:00,75s,26.98
2022-08-20T10:19:00,75s,26.97
2022-08-20T10:20:00,75s,27.06
2022-08-20T10:21:00,75s,26.82
2022-08-20T10:22:00,75s,26.82
2022-08-20T10:23:00,75s,26.69
2022-08-20T10:24:00,75s,26.54
2022-08-20T10:25:00,75s,26.88
2022-08-20T10:26:00,75s,26.49
2022-08-20T10:27:00,75s,26.54
2022-08-20T10:28:00,75s,26.67
2022-08-20T10:29:00,75s,26.53
2022-08-20T10:30:00,75s,26.60
2022-08-20T10:31:00,75s,26.50
2022-08-20T10:32:00,75s,26.46
2022-08-20T10:33:00,75s,26.71
2022-08-20T10:34:00,75s,26.59
2022-08-20T10:35:00,75s,26.77
2022-08-20T10:36:00,75s,26.72
2022-08-20T10:37:00,75s,26.77
2022-08-20T10:38:00,75s,26.94
2022-08-20T10:39:00,75s,27.05
2022-08-20T10:40:00,75s,27.35
2022-08-20T10:41:00,75s,27.30
2022-08-20T10:42:00,75s,27.17
2022-08-20T10:43:00,75s,27.45
2022-08-20T10:44:00,75s,27.46
2022-08-20T10:45:00,75s,27.43
2022-08-20T10:46:00,75s,27.61
2022-08-20T10:47:00,75s,27.91
2022-08-20T10:48:00,75s,28.10
2022-08-20T10:49:00,75s,28.09
2022-08-20T10:50:00,75s,28.10
2022-08-20T10:51:00,75s,28.00
2022-08-20T10:52:00,75s,28.45
2022-08-20T10:53:00,75s,27.86
2022-08-20T10:54:00,75s,27.79
2022-08-20T10:55:00,75s,27.82
2022-08-20T10:56:00,75s,27.65
2022-08-20T10:57:00,75s,27.14
2022-08-20T10:58:00,75s,24.66
2022-08-20T10:59:00,75s,23.05
2022-08-20T11:00:00,75s,20.73
2022-08-20T11:01:00,75s,24.93
2022-08-20T11:02:00,75s,20.88
2022-08-20T11:03:00,75s,21.95
2022-08-20T11:04:00,75s,23.96
2022-08-20T11:05:00,75s,26.05
2022-08-20T11:06:00,75s,27.75
2022-08-20T11:07:00,75s,27.96
2022-08-20T11:08:00,75s,27.82
2022-08-20T11:09:00,75s,27.62
2022-08-20T11:10:00,75s,27.44
2022-08-20T11:11:00,75s,27.50
2022-08-20T11:12:00,75s,27.49
2022-08-20T11:13:00,75s,28.16
2022-08-20T11:14:00,75s,27.85
2022-08-20T11:15:00,75s,27.80
2022-08-20T11:16:00,75s,27.77
2022-08-20T11:17:00,75s,27.65
2022-08-20T11:18:00,75s,27.82
2022-08-20T11:19:00,75s,27.70
2022-08-20T11:20:00,75s,27.60
2022-08-20T11:21:00,75s,27.63
2022-08-20T11:22:00,75s,27.75
2022-08-20T11:23:00,75s,27.63
2022-08-20T11:24:00,75s,27.39
2022-08-20T11:25:00,75s,27.95
2022-08-20T11:26:00,75s,27.82
2022-08-20T11:27:00,75s,27.58
2022-08-20T11:28:00,75s,27.62
2022-08-20T11:29:00,75s,27.63
2022-08-20T11:30:00,75s,27.68
2022-08-20T11:31:00,75s,27.53
2022-08-20T11:32:00,75s,27.79
2022-08-20T11:33:00,75s,27.91
2022-08-20T11:34:00,75s,27.79
2022-08-20T11:35:00,75s,27.80
2022-08-20T11:36:00,75s,27.71
2022-08-20T11:37:00,75s,27.90
2022-08-20T11:38:00,75s,27.72
2022-08-20T11:39:00,75s,28.04
2022-08-20T11:40:00,75s,28.17
2022-08-20T11:41:00,75s,27.76
2022-08-20T11:42:00,75s,27.85
2022-08-20T11:43:00,75s,28.08
2022-08-20T11:44:00,75s,27.77
2022-08-20T11:45:00,75s,27.91
2022-08-20T11:46:00,75s,28.00
2022-08-20T11:47:00,75s,27.85
2022-08-20T11:48:00,75s,28.00
2022-08-20T11:49:00,75s,27.91
2022-08-20T11:50:00,75s,27.54
2022-08-20T11:51:00,75s,25.71
2022-08-20T11:52:00,75s,23.06
2022-08-20T11:53:00,75s,22.63
2022-08-20T11:54:00,75s,20.81
2022-08-20T11:55:00,75s,26.65
2022-08-20T11:56:00,75s,21.16
2022-08-20T11:57:00,75s,23.63
2022-08-20T11:58:00,75s,25.54
2022-08-20T11:59:00,75s,27.75
2022-08-20T12:00:00,75s,28.60
2022-08-20T12:01:00,75s,28.44
2022-08-20T12:02:00,75s,28.35
2022-08-20T12:03:00,75s,28.70
2022-08-20T12:04:00,75s,28.23
2022-08-20T12:05:00,75s,28.04
2022-08-20T12:06:00,75s,28.30
2022-08-20T12:07:00,75s,28.01
2022-08-20T12:08:00,75s,27.79
2022-08-20T12:09:00,75s,28.15
2022-08-20T12:10:00,75s,28.20
2022-08-20T12:11:00,75s,27.87
2022-08-20T12:12:00,75s,27.44
2022-08-20T12:13:00,75s,26.88
2022-08-20T12:14:00,75s,26.39
2022-08-20T12:15:00,75s,25.72
2022-08-20T12:16:00,75s,25.31
2022-08-20T12:17:00,75s,20.58
2022-08-20T12:18:00,75s,20.17
2022-08-20T12:19:00,75s,20.29
2022-08-20T12:20:00,75s,20.21
2022-08-20T12:21:00,75s,20.22
2022-08-20T12:22:00,75s,20.24
2022-08-20T12:23:00,75s,20.26
2022-08-20T12:24:00,75s,20.12
2022-08-20T12:25:00,75s,20.05
2022-08-20T12:26:00,75s,20.13
2022-08-20T12:27:00,75s,20.19
2022-08-20T12:28:00,75s,19.89
2022-08-20T12:29:00,75s,19.81
2022-08-20T12:30:00,75s,14.61
2022-08-20T12:31:00,75s,14.49
2022-08-20T12:32:00,75s,14.73
2022-08-20T12:33:00,75s,14.39
2022-08-20T12:34:00,75s,14.51
2022-08-20T12:35:00,75s,14.36
2022-08-20T12:36:00,75s,14.38
2022-08-20T12:37:00,75s,14.27
2022-08-20T12:38:00,75s,14.52
2022-08-20T12:39:00,75s,14.53
2022-08-20T12:40:00,75s,14.66
2022-08-20T12:41:00,75s,14.48
2022-08-20T12:42:00,75s,14.63
2022-08-20T12:43:00,75s,14.47
2022-08-20T12:44:00,75s,14.54
2022-08-20T12:45:00,75s,14.52
2022-08-20T12:46:00,75s,14.60
2022-08-20T12:47:00,75s,14.51
2022-08-20T12:48:00,75s,14.38
2022-08-20T12:49:00,75s,14.42
2022-08-20T12:50:00,75s,14.40
2022-08-20T12:51:00,75s,14.35
2022-08-20T12:52:00,75s,14.85
2022-08-20T12:53:00,75s,14.58
2022-08-20T12:54:00,75s,14.59
2022-08-20T12:55:00,75s,14.63
2022-08-20T12:56:00,75s,14.42
2022-08-20T12:57:00,75s,14.55
2022-08-20T12:58:00,75s,14.64
2022-08-20T12:59:00,75s,14.71
2022-08-20T13:00:00,75s,14.54
2022-08-20T13:01:00,75s,14.65
2022-08-20T13:02:00,75s,14.65
2022-08-20T13:03:00,75s,14.77
2022-08-20T13:04:00,75s,14.62
2022-08-20T13:05:00,75s,14.73
2022-08-20T13:06:00,75s,14.63
2022-08-20T13:07:00,75s,14.50
2022-08-20T13:08:00,75s,14.77
2022-08-20T13:09:00,75s,14.73
2022-08-20T13:10:00,75s,14.64
2022-08-20T13:11:00,75s,14.61
2022-08-20T13:12:00,75s,14.75
2022-08-20T13:13:00,75s,14.87
2022-08-20T13:14:00,75s,14.82
2022-08-20T13:15:00,75s,14.55
2022-08-20T13:16:00,75s,14.56
2022-08-20T13:17:00,75s,14.51
2022-08-20T13:18:00,75s,14.53
2022-08-20T13:19:00,75s,14.50
2022-08-20T13:20:00,75s,14.50
2022-08-20T13:21:00,75s,14.40
2022-08-20T13:22:00,75s,14.50
2022-08-20T13:23:00,75s,14.41
2022-08-20T13:24:00,75s,14.66
2022-08-20T13:25:00,75s,14.63
2022-08-20T13:26:00,75s,14.54
2022-08-20T13:27:00,75s,14.45
2022-08-20T13:28:00,75s,14.50
2022-08-20T13:29:00,75s,14.44
2022-08-20T13:30:00,75s,23.74
2022-08-20T13:31:00,75s,23.19